KC8TAI Weather Reports


Display with metric or nautical units.
time (UTC)temp
F
wind
direction
speed
MPH
gust
MPH
rain 1hr
in
rain 24hr
in
rain mn
in
humidity
%
barometer
mb
20260509223518 63 221 7.0 9.0 0.00 0.15 0.15 64 1009.6
20260509222518 64 226 7.0 10.0 0.00 0.15 0.15 64 1009.6
20260509221518 65 201 7.0 9.0 0.00 0.15 0.15 64 1009.5
20260509220515 65 213 7.0 10.0 0.00 0.15 0.15 63 1009.4
20260509215515 65 216 6.0 9.0 0.00 0.15 0.15 63 1009.2
20260509214536 64 216 6.0 9.0 0.00 0.15 0.15 65 1009.6
20260509213536 65 216 7.0 10.0 0.00 0.15 0.15 64 1009.6
20260509212516 65 216 6.0 10.0 0.00 0.15 0.15 63 1009.3
20260509211519 64 223 7.0 10.0 0.00 0.15 0.15 64 1009.3
20260509210516 65 216 7.0 10.0 0.00 0.15 0.15 64 1009.5
20260509205516 65 222 8.0 12.0 0.00 0.15 0.15 63 1009.4
20260509204536 66 234 7.0 11.0 0.00 0.15 0.15 65 1009.4
20260509203516 65 224 5.0 9.0 0.00 0.15 0.15 64 1009.3
20260509202516 66 242 6.0 9.0 0.00 0.15 0.15 64 1009.3
20260509201517 64 226 4.0 8.0 0.00 0.15 0.15 66 1009.4
20260509200517 63 234 4.0 7.0 0.00 0.15 0.15 67 1009.8
20260509195517 63 251 4.0 10.0 0.00 0.15 0.15 68 1009.9
20260509194517 63 227 6.0 9.0 0.00 0.15 0.15 68 1009.9
20260509193518 62 227 4.0 8.0 0.00 0.15 0.15 69 1009.7
20260509192518 62 224 7.0 13.0 0.00 0.15 0.15 68 1010.0
20260509191518 62 216 6.0 9.0 0.00 0.15 0.15 68 1009.8
20260509190518 62 213 5.0 8.0 0.00 0.15 0.15 68 1009.9
20260509185518 60 231 4.0 6.0 0.00 0.15 0.15 70 1009.8
20260509184515 60 229 5.0 8.0 0.00 0.15 0.15 72 1009.9
20260509183516 59 232 1.0 4.0 0.00 0.15 0.15 76 1010.0
20260509182515 59 246 3.0 7.0 0.00 0.15 0.15 76 1010.2
20260509181522 59 225 2.0 6.0 0.00 0.15 0.15 77 1010.1
20260509180515 59 200 1.0 4.0 0.00 0.15 0.15 77 1010.0
20260509175516 58 189 0.0 3.0 0.00 0.15 0.15 78 1010.0
20260509174516 58 235 1.0 3.0 0.00 0.15 0.15 78 1010.2
20260509173516 57 190 1.0 3.0 0.00 0.15 0.15 80 1010.1
20260509172536 57 217 2.0 3.0 0.00 0.15 0.15 81 1010.4
20260509171516 57 237 0.0 3.0 0.00 0.15 0.15 82 1010.4
20260509170517 57 238 2.0 4.0 0.00 0.15 0.15 82 1010.3
20260509165517 56 216 3.0 6.0 0.00 0.15 0.15 83 1010.2
20260509164538 56 202 1.0 3.0 0.00 0.15 0.15 85 1010.3
20260509163517 55 151 0.0 2.0 0.00 0.15 0.15 87 1010.3
20260509162518 55 179 1.0 4.0 0.00 0.15 0.15 89 1010.4
20260509161528 55 158 0.0 2.0 0.01 0.15 0.15 88 1010.8
20260509160528 55 217 1.0 3.0 0.01 0.15 0.15 89 1010.8
20260509155528 55 206 1.0 3.0 0.01 0.15 0.15 88 1010.8
20260509154529 55 56 1.0 2.0 0.01 0.15 0.15 88 1010.6
20260509153529 54 222 1.0 3.0 0.01 0.15 0.15 88 1010.8
20260509152516 53 213 2.0 5.0 0.00 0.15 0.15 89 1011.1
20260509151516 53 208 1.0 3.0 0.00 0.14 0.14 90 1011.1
20260509150516 53 128 1.0 2.0 0.00 0.14 0.14 91 1011.1
20260509145516 53 123 0.0 1.0 0.00 0.14 0.14 92 1011.1
20260509144516 53 0.0 0.0 0.01 0.14 0.14 91 1011.0
20260509143516 53 0.0 0.0 0.01 0.14 0.14 90 1011.0
20260509142536 53 272 0.0 1.0 0.01 0.14 0.14 90 1011.0
20260509141517 53 0.0 0.0 0.01 0.14 0.14 91 1011.1
20260509140537 53 241 2.0 3.0 0.01 0.14 0.14 90 1011.1
20260509135517 53 226 0.0 2.0 0.01 0.14 0.14 92 1011.0
20260509134517 52 0.0 0.0 0.02 0.14 0.14 93 1010.8
20260509133537 52 136 0.0 1.0 0.03 0.13 0.13 95 1011.0
20260509132517 51 65 0.0 0.0 0.03 0.13 0.13 95 1011.1
20260509131518 51 0.0 0.0 0.04 0.13 0.13 96 1011.1
20260509130517 51 0.0 0.0 0.04 0.13 0.13 96 1011.2
20260509125538 50 0.0 0.0 0.05 0.13 0.13 96 1011.5
20260509124518 50 0.0 0.0 0.04 0.12 0.12 96 1011.6
20260509123518 50 0.0 0.0 0.04 0.11 0.11 96 1011.5
20260509122518 50 0.0 0.0 0.03 0.11 0.11 96 1011.6
20260509121518 50 199 0.0 0.0 0.03 0.10 0.10 96 1011.7
20260509120519 50 0.0 0.0 0.03 0.09 0.09 96 1011.5
20260509115519 50 0.0 0.0 0.03 0.08 0.08 96 1011.6
20260509114519 49 0.0 0.0 0.02 0.07 0.07 96 1011.7
20260509113519 49 224 0.0 2.0 0.02 0.07 0.07 96 1011.5
20260509112519 49 202 0.0 2.0 0.03 0.07 0.07 96 1011.4
20260509111540 49 50 0.0 1.0 0.02 0.06 0.06 96 1011.4
20260509110520 49 38 0.0 1.0 0.02 0.06 0.06 96 1011.4
20260509105520 49 0.0 0.0 0.02 0.05 0.05 96 1011.3
20260509104520 49 0.0 0.0 0.02 0.05 0.05 96 1011.4
20260509103521 49 0.0 0.0 0.01 0.05 0.05 95 1011.4
20260509102520 49 56 0.0 1.0 0.01 0.05 0.05 95 1011.3
20260509101521 49 70 1.0 2.0 0.01 0.04 0.04 95 1011.5
20260509100521 49 47 1.0 2.0 0.01 0.04 0.04 94 1011.6
20260509095521 49 52 1.0 3.0 0.03 0.04 0.04 94 1011.7
20260509094601 49 0.0 0.0 0.03 0.03 0.03 93 1011.8
20260509093521 49 52 0.0 2.0 0.03 0.03 0.03 92 1011.8
20260509092521 50 0.0 0.0 0.03 0.03 0.03 90 1011.9
20260509091542 50 234 0.0 2.0 0.03 0.03 0.03 89 1011.9
20260509090542 52 343 0.0 2.0 0.03 0.03 0.03 83 1011.7
20260509085519 53 231 5.0 9.0 0.01 0.01 0.01 78 1011.9
20260509084556 55 245 6.0 10.0 0.00 0.00 0.00 74 1011.8
20260509083520 55 238 6.0 9.0 0.00 0.00 0.00 72 1011.6
20260509082517 56 226 6.0 10.0 0.00 0.00 0.00 69 1011.3
20260509081538 55 223 7.0 10.0 0.00 0.00 0.00 68 1010.8
20260509080538 52 214 4.0 8.0 0.00 0.00 0.00 73 1010.7
20260509075518 48 59 1.0 5.0 0.00 0.00 0.00 94 1010.8
20260509074518 48 44 2.0 5.0 0.00 0.00 0.00 94 1010.8
20260509073518 47 267 0.0 3.0 0.00 0.00 0.00 94 1010.7
20260509072518 47 53 0.0 1.0 0.00 0.00 0.00 94 1010.6
20260509071518 48 0.0 0.0 0.00 0.00 0.00 93 1010.7
20260509070515 48 0.0 0.0 0.00 0.00 0.00 93 1010.6
20260509065515 48 0.0 0.0 0.00 0.00 0.00 93 1010.6
20260509064515 47 37 0.0 1.0 0.00 0.00 0.00 93 1010.6
20260509063516 48 0.0 0.0 0.00 0.00 0.00 93 1010.7
20260509062536 48 0.0 0.0 0.00 0.00 0.00 93 1010.7
20260509061516 48 47 0.0 2.0 0.00 0.00 0.00 92 1010.8
20260509060516 48 281 0.0 2.0 0.00 0.00 0.00 92 1011.0
20260509055517 48 31 0.0 1.0 0.00 0.00 0.00 91 1011.0
20260509054516 48 0.0 0.0 0.00 0.00 0.00 90 1011.3
20260509053517 49 0.0 0.0 0.00 0.00 0.00 90 1011.4
20260509052537 49 355 0.0 1.0 0.00 0.00 0.00 90 1011.4
20260509051517 49 265 0.0 2.0 0.00 0.00 0.00 90 1011.5
20260509050517 49 301 0.0 1.0 0.00 0.00 0.00 90 1011.7
20260509045517 49 0.0 0.0 0.00 0.00 0.00 89 1011.7
20260509044517 49 0.0 0.0 0.00 0.00 0.00 89 1011.8
20260509043538 50 0.0 0.0 0.00 0.00 0.00 89 1011.8
20260509042518 50 0.0 0.0 0.00 0.00 0.00 88 1011.9
20260509041518 50 0.0 0.0 0.00 0.00 0.00 87 1012.0
20260509040515 50 0.0 0.0 0.00 0.00 0.00 86 1011.9
20260509035515 50 0.0 0.0 0.00 0.00 0.00 86 1011.9
20260509034515 50 0.0 0.0 0.00 0.00 0.00 85 1011.9
20260509033516 51 0.0 0.0 0.00 0.00 0.00 85 1012.0
20260509032516 51 0.0 0.0 0.00 0.00 0.00 85 1012.1
20260509031516 51 0.0 0.0 0.00 0.00 0.00 85 1012.1
20260509030516 51 0.0 0.0 0.00 0.00 0.00 83 1012.1
20260509025516 51 0.0 0.0 0.00 0.00 0.00 82 1012.1
20260509024516 52 0.0 0.0 0.00 0.00 0.00 84 1012.1
20260509023516 52 0.0 0.0 0.00 0.00 0.00 84 1012.2
20260509022517 52 0.0 0.0 0.00 0.00 0.00 81 1012.2
20260509021517 52 0.0 0.0 0.00 0.00 0.00 83 1012.2
20260509020537 52 0.0 0.0 0.00 0.00 0.00 81 1012.3
20260509015517 53 0.0 0.0 0.00 0.00 0.00 78 1012.2
20260509014517 53 0.0 0.0 0.00 0.00 0.00 79 1012.0
20260509013517 53 0.0 0.0 0.00 0.00 0.00 79 1011.9
20260509012538 54 0.0 0.0 0.00 0.00 0.00 77 1011.9
20260509011518 54 0.0 0.0 0.00 0.00 0.00 79 1011.8
20260509010515 55 0.0 0.0 0.00 0.00 0.00 72 1011.9
20260509005515 56 340 0.0 1.0 0.00 0.00 0.00 73 1011.7
20260509004515 57 0.0 0.0 0.00 0.00 0.00 65 1011.8
20260509003516 58 258 1.0 3.0 0.00 0.00 0.00 60 1011.6
20260509002516 59 245 2.0 3.0 0.00 0.00 0.00 57 1011.6
20260509001536 59 211 2.0 4.0 0.00 0.00 0.00 56 1011.6
20260509000516 60 217 1.0 3.0 0.00 0.00 0.00 56 1011.7
20260508235517 60 229 2.0 6.0 0.00 0.00 0.00 56 1011.6
20260508234517 60 224 2.0 6.0 0.00 0.00 0.00 55 1011.5
20260508233517 61 219 4.0 6.0 0.00 0.00 0.00 54 1011.3
20260508232517 61 225 3.0 8.0 0.00 0.00 0.00 55 1011.4
20260508231520 61 214 4.0 6.0 0.00 0.00 0.00 54 1011.3
20260508230517 61 213 5.0 9.0 0.00 0.00 0.00 54 1011.2
20260508225518 61 221 4.0 7.0 0.00 0.00 0.00 54 1011.4
20260508224658 61 225 4.0 7.0 0.00 0.00 0.00 54 1011.3